User: anonymous   Login
Location: Unspecified
(0.0000°N, 0.0000°E)
Time: 22:52:44
(UTC+00:00)
Language:

ZACube-1 - Orbit

View from above orbital plane
View from above orbital plane
View from above satellite
View from above satellite

Ground track
Ground track

The orbit data is extracted from the following two-line orbital elements,

1 39417U 13066B   19286.51160091  .00000214  00000-0  33139-4 0  9999
2 39417  97.5627 293.4485 0059239  12.4648 347.8014 14.81159969318338
Epoch (UTC): 13 October 2019 12:16:42
Eccentricity: 0.0059239
inclination: 97.5627°
perigee height: 584 km
apogee height: 667 km
right ascension of ascending node: 293.4485°
argument of perigee: 12.4648°
revolutions per day: 14.81159969
mean anomaly at epoch: 347.8014°
orbit number at epoch: 31833

The dashed part of the orbit path shows where the satellite is in the earth's shadow,  

DLR